Regional Weather Roundup
Issued by NWS Sterling, VA

Home | Current Version | Previous Version | Text Only | Print | Product List | Glossary Off
Versions: 1 2 3 4 5 6 7 8 9 10 11 12 13 14 15 16 17 18 19 20 21 22 23 24 25 26 27 28 29 30 31 32 33 34 35 36 37 38 39 40 41 42 43 44 45 46 47 48 49 50

000
ASUS41 KLWX 311410
RWRLWX

REGIONAL WEATHER ROUNDUP
NATIONAL WEATHER SERVICE BALTIMORE MD/WASHINGTON DC
1000 AM EDT MON AUG 31 2015

Note: "FAIR" indicates few or no clouds below 12,000 feet
with no significant weather and/or obstructions to visibility.
 TC=TEMPERATURE CELSIUS

 * =Non NWS site. Station does not report precipitation (e.g. rain,
    snow, etc.), thunder, or fog.

DCZ001-MDZ009-015-VAZ040>042-051-053>054-311500-
WASHINGTON METRO

CITY           SKY/WX    TMP DP  RH WIND       PRES   REMARKS
WASHINGTON NAT CLOUDY    80  67  64 S7        30.10R
DULLES         CLOUDY    78  68  71 NW7       30.11R
ANDREWS AFB    CLOUDY    79  66  65 SW8       30.10R
FT BELVOIR     CLOUDY    78  68  72 S3        30.10S
QUANTICO       CLOUDY    76  67  73 SW3       30.12R
COLLEGE PARK*  CLOUDY    81  64  57 W3        30.09R
LEESBURG*      DRIZZLE   75  73  94 SW3       30.12R
MANASSAS*      SUNNY     75  70  83 CALM      30.10S
GAITHERSBURG*  CLOUDY    77  66  69 W5        30.15R

$$

MDZ006>007-011-014-311500-
BALTIMORE METRO

CITY           SKY/WX    TMP DP  RH WIND       PRES   REMARKS
BWI AIRPORT    PTSUNNY   81  66  60 W7        30.08S
MD SCIENCE CTR   N/A     83  65  54 MISG      30.08S
MARTIN STATE   PTSUNNY   82  72  69 SW6       30.09S
ANNAPOLIS      PTSUNNY   78  66  66 S5        30.08S
FORT MEADE*    PTSUNNY   79  68  69 SW3       30.11S

$$

MDZ012-015-019>023-311500-
MARYLAND EASTERN SHORE

CITY           SKY/WX    TMP DP  RH WIND       PRES   REMARKS
OCEAN CITY     LGT RAIN  78  71  79 SW9       30.10S
SALISBURY      CLOUDY    79  70  74 SW9       30.10R
BAY BRIDGE AP*   N/A     77  64  65 SW6       30.09R
CAMBRIDGE*     PTSUNNY   81  68  65 NW6       30.09R
EASTON*        SUNNY     81  70  69 SW7       30.13R

$$

MDZ017>025-311500-
SOUTHERN MARYLAND

CITY           SKY/WX    TMP DP  RH WIND       PRES   REMARKS
PATUXENT RIVER CLOUDY    80  67  64 SW6       30.09S
ST INIGOES     CLOUDY    80  68  66 S9        30.09S
LEONARDTOWN*   NOT AVBL

$$

MDZ003>005-311500-
NORTH CENTRAL MARYLAND

CITY           SKY/WX    TMP DP  RH WIND       PRES   REMARKS
FREDERICK*     SUNNY     81  68  65 SW7       30.12S
HAGERSTOWN APT CLOUDY    78  65  63 SW5       30.11R
WESTMINSTER*   CLOUDY    79  66  65 CALM      30.11R

$$

MDZ501>502-311500-
WESTERN MARYLAND

CITY           SKY/WX    TMP DP  RH WIND       PRES   REMARKS
OAKLAND*       CLOUDY    68  63  83 W3        30.23R
CUMBERLAND*    CLOUDY    75  68  78 CALM      30.16R

$$

VAZ025>031-311500-
SHENANDOAH VALLEY

CITY           SKY/WX    TMP DP  RH WIND       PRES   REMARKS
WINCHESTER*    CLOUDY    79  63  57 W6        30.12R
FRONT ROYAL*   PTSUNNY   75  66  73 CALM      30.12R
LURAY*         FAIR      73  63  68 CALM      30.13S
NEW MARKET*    FAIR      73  67  80 CALM      30.12S
STAUNTON*      CLOUDY    75  64  69 S5        30.17R
WAYNESBORO*    CLOUDY    73  63  71 CALM      30.16R

$$

WVZ021-048>050-054>055-311500-
EASTERN WEST VIRGINIA PANHANDLE

CITY           SKY/WX    TMP DP  RH WIND       PRES   REMARKS
MARTINSBURG    PTSUNNY   79  65  62 W3        30.11R
PETERSBURG*    PTSUNNY   70  67  91 CALM      30.16R

$$

VAZ036>039-050-311500-
CENTRAL FOOTHILLS

CITY           SKY/WX    TMP DP  RH WIND       PRES   REMARKS
CHARLOTTESVILL CLOUDY    73  67  81 S3        30.13R
CULPEPER*      CLOUDY    74  67  78 CALM      30.12S
ORANGE*        CLOUDY    73  70  88 S5        30.13R
GORDONSVILLE*  FAIR      73  69  87 SW5       30.12R
WARRENTON*     FAIR      77  70  78 SW3       30.11R

$$

VAZ055>057-311500-
NORTH AND CENTRAL PIEDMONT

CITY           SKY/WX    TMP DP  RH WIND       PRES   REMARKS
FREDERICKSBRG* CLOUDY    80  68  67 W3        30.11R
STAFFORD*      LGT RAIN  74  67  79 CALM      30.16R

$$

NCZ024-NYZ072-PAZ021-071-VAZ022-071-311500-
OTHER REGIONAL OBSERVATIONS

CITY           SKY/WX    TMP DP  RH WIND       PRES   REMARKS
NEW YORK CITY  CLOUDY    81  66  60 CALM      30.06S
PHILADELPHIA   CLOUDY    80  68  66 W8        30.07S
PITTSBURGH     PTSUNNY   74  66  76 W7        30.13R
ROANOKE        PTSUNNY   75  65  70 SE5       30.17S
RICHMOND       CLOUDY    78  65  63 S9        30.12S
RALEIGH        CLOUDY    69  67  93 E7        30.13S FOG

$$

ANZ530>537-311500-
MARINE OBSERVATIONS

STATION/POSITION TIME  TEMP    WIND        PRES
                       AIR SEA DIR/SP/G
                 (UTC) (F)     (DEG/KT/KT) (MB)
THOMAS PT LIGHT  NOT AVBL

$$



USA.gov is the U.S. government's official web portal to all federal, state and local government web resources and services.